Stations météo

réclame
Mon MeteoGroup
Kinbrace, Grande-Bretagne (99016): Température de l'air & dewpoint: 13.09.2019 12:00:00 - 19.09.2019 12:00:00 (BST)Kinbrace, Grande-Bretagne (99016): Quantités de précipitations: 13.09.2019 12:00:00 - 19.09.2019 12:00:00 (BST)
Date & Time tt [°C] td [°C] rr [mm]
19.09.2019 12:00:00 - - -
19.09.2019 11:00:00 14,2 11,8 0,0
19.09.2019 10:00:00 14,0 11,9 0,0
19.09.2019 09:00:00 13,4 11,9 0,0
19.09.2019 08:00:00 12,5 11,5 0,0
19.09.2019 07:00:00 10,6 9,2 0,0
19.09.2019 06:00:00 12,4 11,6 0,0
19.09.2019 05:00:00 12,4 12,0 0,0
19.09.2019 04:00:00 10,4 9,9 0,0
19.09.2019 03:00:00 11,1 10,7 0,0
19.09.2019 02:00:00 10,7 10,3 0,0
19.09.2019 01:00:00 10,4 9,8 0,0
19.09.2019 00:00:00 10,4 9,8 0,0
18.09.2019 23:00:00 10,3 9,6 0,0
18.09.2019 22:00:00 10,2 9,6 0,0
18.09.2019 21:00:00 10,0 9,4 0,0
18.09.2019 20:00:00 10,0 9,4 0,0
18.09.2019 19:00:00 10,1 9,5 0,2
18.09.2019 18:00:00 10,5 9,8 0,0
18.09.2019 17:00:00 10,8 9,7 0,0
18.09.2019 16:00:00 11,2 9,4 0,0
18.09.2019 15:00:00 11,0 9,8 0,0
18.09.2019 14:00:00 10,7 9,6 0,0
18.09.2019 13:00:00 10,7 9,8 0,2
18.09.2019 12:00:00 10,0 9,2 0,0
18.09.2019 11:00:00 9,6 8,9 0,2
18.09.2019 10:00:00 9,2 8,6 0,4
18.09.2019 09:00:00 8,4 8,0 0,4
18.09.2019 08:00:00 7,4 6,9 0,6
18.09.2019 07:00:00 6,9 6,4 0,2
18.09.2019 06:00:00 7,0 6,2 0,2
18.09.2019 05:00:00 6,9 6,3 0,4
18.09.2019 04:00:00 6,8 6,1 0,0
18.09.2019 03:00:00 6,8 6,1 0,0
18.09.2019 02:00:00 6,9 6,0 0,2
18.09.2019 01:00:00 6,9 6,0 0,0
18.09.2019 00:00:00 7,1 6,2 0,0
17.09.2019 23:00:00 6,9 6,0 0,0
17.09.2019 22:00:00 7,0 5,5 0,0
17.09.2019 21:00:00 7,6 5,4 0,0
17.09.2019 20:00:00 8,6 6,2 0,0
17.09.2019 19:00:00 9,1 5,9 0,0
17.09.2019 18:00:00 10,1 5,3 0,0
17.09.2019 17:00:00 10,4 5,0 0,0
17.09.2019 16:00:00 10,9 5,4 0,0
17.09.2019 15:00:00 11,6 3,9 0,0
17.09.2019 14:00:00 11,7 4,8 0,0
17.09.2019 13:00:00 12,3 6,5 0,0
17.09.2019 12:00:00 11,5 6,1 0,0
17.09.2019 11:00:00 10,5 5,2 0,0
17.09.2019 10:00:00 9,3 4,5 0,0
17.09.2019 09:00:00 8,4 5,6 0,0
17.09.2019 08:00:00 5,9 4,6 0,0
17.09.2019 07:00:00 4,2 3,0 0,0
17.09.2019 06:00:00 5,3 3,6 0,0
17.09.2019 05:00:00 6,5 4,7 0,2
17.09.2019 04:00:00 5,1 3,7 0,0
17.09.2019 03:00:00 5,8 3,7 0,0
17.09.2019 02:00:00 6,9 4,0 0,0
17.09.2019 01:00:00 5,6 2,3 0,0
17.09.2019 00:00:00 6,0 3,1 0,0
16.09.2019 23:00:00 5,8 4,0 0,2
16.09.2019 22:00:00 6,5 4,8 0,0
16.09.2019 21:00:00 7,3 5,4 0,2
16.09.2019 20:00:00 6,8 5,0 0,4
16.09.2019 19:00:00 8,4 6,8 0,6
16.09.2019 18:00:00 10,4 4,7 0,0
16.09.2019 17:00:00 11,5 5,9 0,4
16.09.2019 16:00:00 10,4 7,5 0,2
16.09.2019 15:00:00 12,3 6,8 0,0
16.09.2019 14:00:00 13,0 8,8 0,2
16.09.2019 13:00:00 10,8 7,9 0,0
16.09.2019 12:00:00 12,9 6,7 0,0
16.09.2019 11:00:00 11,6 5,7 0,0
16.09.2019 10:00:00 10,9 7,0 0,0
16.09.2019 09:00:00 10,4 7,0 0,0
16.09.2019 08:00:00 9,3 7,3 0,0
16.09.2019 07:00:00 9,3 6,7 0,0
16.09.2019 06:00:00 8,7 5,9 0,0
16.09.2019 05:00:00 7,9 4,9 0,0
16.09.2019 04:00:00 8,9 5,8 0,0
16.09.2019 03:00:00 8,4 6,1 0,0
16.09.2019 02:00:00 7,6 5,2 0,0
16.09.2019 01:00:00 8,0 5,1 0,0
16.09.2019 00:00:00 8,1 5,1 0,0
15.09.2019 23:00:00 6,1 4,5 0,0
15.09.2019 22:00:00 6,7 5,3 0,2
15.09.2019 21:00:00 7,2 5,2 0,0
15.09.2019 20:00:00 7,1 5,6 0,4
15.09.2019 19:00:00 9,1 6,2 0,0
15.09.2019 18:00:00 10,1 4,9 0,0
15.09.2019 17:00:00 11,2 5,3 0,0
15.09.2019 16:00:00 11,2 4,8 0,2
15.09.2019 15:00:00 9,7 6,6 0,0
15.09.2019 14:00:00 11,7 3,3 0,0
15.09.2019 13:00:00 12,5 4,9 0,0
15.09.2019 12:00:00 11,5 3,1 0,0
15.09.2019 11:00:00 11,2 5,2 0,0
15.09.2019 10:00:00 10,7 4,8 0,0
15.09.2019 09:00:00 10,1 4,7 0,0
15.09.2019 08:00:00 9,8 4,9 0,0
15.09.2019 07:00:00 9,3 3,6 0,0
15.09.2019 06:00:00 9,5 4,3 0,0
15.09.2019 05:00:00 9,7 3,3 0,0
15.09.2019 04:00:00 9,2 2,6 0,0
15.09.2019 03:00:00 10,1 4,6 0,0
15.09.2019 02:00:00 10,4 4,6 0,0
15.09.2019 01:00:00 10,4 3,9 0,0
15.09.2019 00:00:00 10,9 4,8 0,0
14.09.2019 23:00:00 11,3 7,4 0,0
14.09.2019 22:00:00 11,3 6,2 0,0
14.09.2019 21:00:00 11,4 7,3 0,0
14.09.2019 20:00:00 11,7 8,5 0,2
14.09.2019 19:00:00 12,6 8,9 1,0
14.09.2019 18:00:00 14,0 11,9 0,2
14.09.2019 17:00:00 15,1 12,5 0,0
14.09.2019 16:00:00 16,1 13,2 0,0
14.09.2019 15:00:00 15,9 13,6 0,2
14.09.2019 14:00:00 14,5 13,3 0,8
14.09.2019 13:00:00 14,3 13,1 1,0
14.09.2019 12:00:00 14,4 12,4 0,2
14.09.2019 11:00:00 13,0 10,8 0,2
14.09.2019 10:00:00 11,3 9,3 0,0
14.09.2019 09:00:00 10,7 8,5 0,2
14.09.2019 08:00:00 11,3 8,2 0,0
14.09.2019 07:00:00 11,1 7,1 0,0
14.09.2019 06:00:00 10,8 7,3 0,0
14.09.2019 05:00:00 11,2 7,3 0,0
14.09.2019 04:00:00 11,0 7,9 0,0
14.09.2019 03:00:00 11,0 8,0 0,0
14.09.2019 02:00:00 11,0 8,3 0,0
14.09.2019 01:00:00 10,8 9,3 0,0
14.09.2019 00:00:00 11,3 8,8 0,0
13.09.2019 23:00:00 11,0 8,8 0,0
13.09.2019 22:00:00 11,7 8,5 0,0
13.09.2019 21:00:00 11,6 8,6 0,0
13.09.2019 20:00:00 11,3 8,4 0,0
13.09.2019 19:00:00 11,5 9,3 0,0
13.09.2019 18:00:00 11,3 9,0 0,0
13.09.2019 17:00:00 14,7 8,6 0,0
13.09.2019 16:00:00 13,6 9,2 0,0
13.09.2019 15:00:00 14,6 7,3 0,0
13.09.2019 14:00:00 14,6 8,1 0,0
13.09.2019 13:00:00 12,9 8,5 0,0
13.09.2019 12:00:00 13,7 9,8 0,8

tt = Température de l'air
td = dewpoint
rr = Quantités de précipitations

stations d'obs. à proximité